Home > Time Zones > World Clock > Weather > Oman > Muscat > Past weeks

Flag for Oman Weather past 2 weeks in Muscat, Oman

Now
90 °F

Clear.


Feels Like: 108 °F
Forecast: 83 / 92 °F
Wind: 8 mph from Northeast

Location: International Airport

Current Time: Sep 23, 2014 at 12:36:58 PM

Latest Report: Sep 23, 2014 at 11:50 AM


Visibility: 5 mi

Pressure: 29.74 "Hg

Humidity: 75%

Dew point: 81 °F

Location of MuscatLocation

Historic Weather in Muscat — Graph

°F

Muscat temperature yesterday

Maximum temperature yesterday: 91 °F (at 11:50 AM)
Minimum temperature yesterday: 82 °F (at 3:50 AM)
Average temperature yesterday: 87 °F

Past Weeks' High & Low Weather Summary

 TemperatureHumidityPressure
High97 °F (Sep 10, 11:50 AM)94% (Sep 9, 4:50 AM)29.80 "Hg (Sep 9, 4:50 AM)
Low81 °F (Sep 17, 5:50 AM)46% (Sep 9, 8:50 PM)29.53 "Hg (Sep 11, 1:50 AM)
Average87 °F78%29.66 "Hg
* Reported Sep 8 10:50 AM — Sep 23 10:50 AM, Muscat, Weather by CustomWeather, © 2014

Note: Actual official high and low records may vary slightly from our data, if they occured in-between our weather recording intervals... More about our weather records

Advertising

Muscat weather history for previous 24 hours

 ConditionsComfort  
Time TempWeatherWind HumidityBarometerVisibility
10:50 AM
Sep 23
88 °FClear.8 mph79%29.77 "Hg5 mi
9:50 AM88 °FClear.8 mph75%29.77 "Hg5 mi
8:50 AM90 °FClear.6 mph63%29.77 "Hg5 mi
7:50 AM86 °FClear.8 mph75%29.74 "Hg5 mi
6:50 AM82 °FPassing clouds.6 mph84%29.74 "Hg4 mi
5:50 AM81 °FPassing clouds.5 mph89%29.71 "Hg4 mi
4:50 AM82 °FClear.1 mph79%29.71 "Hg5 mi
3:50 AM82 °FClear.3 mph70%29.68 "Hg5 mi
2:50 AM84 °FClear.5 mph70%29.68 "Hg5 mi
1:50 AM84 °FClear.3 mph70%29.68 "Hg5 mi
12:50 AM84 °FClear.2 mph74%29.71 "Hg5 mi
11:50 PM
Sep 22
84 °FClear.5 mph84%29.71 "Hg5 mi
10:50 PM86 °FClear.3 mph66%29.71 "Hg5 mi
9:50 PM84 °FClear.8 mph74%29.71 "Hg5 mi
8:50 PM86 °FClear.2 mph70%29.71 "Hg5 mi
7:50 PM86 °FClear.6 mph75%29.71 "Hg5 mi
6:50 PM86 °FClear.No wind70%29.68 "Hg5 mi
5:50 PM90 °FClear.6 mph59%29.68 "Hg5 mi
4:50 PM90 °FClear.12 mph67%29.68 "Hg5 mi
3:50 PM88 °FClear.16 mph75%29.68 "Hg5 mi
2:50 PM90 °FClear.17 mph75%29.68 "Hg5 mi
1:50 PM90 °FClear.18 mph71%29.68 "Hg5 mi
12:50 PM91 °FClear.14 mph63%29.71 "Hg5 mi
Weather by CustomWeather, © 2014

See weather overviewHow to use our weather pages